When you browse on this site, cookies collect data to enhance your experience and personalize the content and advertising you see.
Visit our Privacy Policy to learn more. By continuing to use the site, you agree to this use of cookies and data.
  • In Hungary
  • List of Countries
  • For 7 days
  • Water Temperature
  • Satellite Maps
  • Weather Map
  • News
  • Weather Widgets
  • user-avatar
    Login

    Hourly Weather Viglino

    Today, 22 January, Tuesday

    Time Temperature Precipitation Wind Pressure Humidity
    00:00 -20°C° 0 mm 2 mps 741 mmHg 96%
    01:00 -20°C° 0 mm 2 mps 741 mmHg 96%
    02:00 -20°C° 0 mm 2 mps 742 mmHg 97%
    03:00 -20°C° 0 mm 2 mps 742 mmHg 97%
    04:00 -20°C° 0 mm 2 mps 742 mmHg 97%
    05:00 -21°C° 0 mm 3 mps 743 mmHg 96%
    06:00 -21°C° 0 mm 3 mps 743 mmHg 96%
    07:00 -19°C° 0 mm 3 mps 743 mmHg 96%
    08:00 -19°C° 0 mm 3 mps 743 mmHg 96%
    09:00 -19°C° 0 mm 3 mps 743 mmHg 95%
    10:00 -18°C° 0 mm 3 mps 744 mmHg 94%
    11:00 -18°C° 0 mm 3 mps 744 mmHg 94%
    12:00 -17°C° 0 mm 3 mps 744 mmHg 93%
    13:00 -17°C° 0 mm 3 mps 744 mmHg 93%
    14:00 -17°C° 0 mm 3 mps 744 mmHg 93%
    15:00 -17°C° 0.1 mm 3 mps 744 mmHg 93%
    16:00 -17°C° 0.1 mm 3 mps 744 mmHg 94%
    17:00 -17°C° 0.1 mm 3 mps 744 mmHg 94%
    18:00 -18°C° 0 mm 3 mps 744 mmHg 94%
    19:00 -18°C° 0 mm 3 mps 744 mmHg 95%
    20:00 -19°C° 0 mm 3 mps 744 mmHg 95%
    21:00 -19°C° 0 mm 2 mps 744 mmHg 96%
    22:00 -19°C° 0 mm 2 mps 744 mmHg 96%
    23:00 -20°C° 0 mm 2 mps 744 mmHg 97%

    Tomorrow, 23 January, Wednesday

    Time Temperature Precipitation Wind Pressure Humidity
    00:00 -21°C° 0 mm 2 mps 745 mmHg 97%
    01:00 -21°C° 0 mm 2 mps 745 mmHg 98%
    02:00 -23°C° 0 mm 2 mps 745 mmHg 98%
    03:00 -23°C° 0 mm 2 mps 745 mmHg 98%
    04:00 -24°C° 0 mm 2 mps 745 mmHg 98%
    05:00 -24°C° 0 mm 2 mps 745 mmHg 98%
    06:00 -24°C° 0 mm 2 mps 745 mmHg 98%
    07:00 -24°C° 0 mm 2 mps 745 mmHg 97%
    08:00 -23°C° 0 mm 2 mps 746 mmHg 97%
    09:00 -21°C° 0 mm 2 mps 746 mmHg 95%
    10:00 -20°C° 0 mm 2 mps 746 mmHg 94%
    11:00 -19°C° 0 mm 2 mps 746 mmHg 92%
    12:00 -18°C° 0 mm 2 mps 745 mmHg 92%
    13:00 -18°C° 0 mm 2 mps 745 mmHg 92%
    14:00 -18°C° 0 mm 3 mps 744 mmHg 93%
    15:00 -18°C° 0 mm 3 mps 744 mmHg 94%
    16:00 -18°C° 0 mm 2 mps 744 mmHg 95%
    17:00 -18°C° 0 mm 2 mps 744 mmHg 96%
    18:00 -17°C° 0.1 mm 3 mps 744 mmHg 95%
    19:00 -16°C° 0.1 mm 3 mps 744 mmHg 94%
    20:00 -14°C° 0.1 mm 3 mps 743 mmHg 94%
    21:00 -14°C° 0.1 mm 3 mps 743 mmHg 93%
    22:00 -14°C° 0.1 mm 4 mps 743 mmHg 92%
    23:00 -12°C° 0.1 mm 4 mps 743 mmHg 91%

    Day after tomorrow, 24 January, Thursday

    Time Temperature Precipitation Wind Pressure Humidity
    00:00 -12°C° 0.1 mm 4 mps 743 mmHg 91%
    01:00 -11°C° 0.1 mm 4 mps 742 mmHg 90%
    02:00 -11°C° 0.1 mm 4 mps 742 mmHg 90%
    03:00 -12°C° 0 mm 4 mps 742 mmHg 91%
    04:00 -14°C° 0 mm 4 mps 742 mmHg 91%
    05:00 -14°C° 0 mm 4 mps 741 mmHg 92%
    06:00 -15°C° 0.1 mm 4 mps 741 mmHg 92%
    07:00 -15°C° 0.1 mm 4 mps 741 mmHg 92%
    08:00 -15°C° 0.1 mm 4 mps 741 mmHg 92%
    09:00 -14°C° 0.1 mm 3 mps 742 mmHg 92%
    10:00 -14°C° 0.1 mm 3 mps 742 mmHg 92%
    11:00 -13°C° 0.1 mm 3 mps 743 mmHg 92%
    12:00 -13°C° 0 mm 3 mps 743 mmHg 90%
    13:00 -13°C° 0 mm 3 mps 743 mmHg 89%
    14:00 -12°C° 0 mm 3 mps 744 mmHg 87%
    15:00 -14°C° 0 mm 2 mps 744 mmHg 89%
    16:00 -16°C° 0 mm 2 mps 745 mmHg 92%
    17:00 -19°C° 0 mm 2 mps 745 mmHg 94%
    18:00 -20°C° 0 mm 2 mps 746 mmHg 94%
    19:00 -21°C° 0 mm 2 mps 746 mmHg 95%
    20:00 -20°C° 0 mm 1 mps 747 mmHg 95%
    21:00 -20°C° 0 mm 1 mps 747 mmHg 95%
    22:00 -21°C° 0 mm 1 mps 748 mmHg 95%
    23:00 -21°C° 0 mm 1 mps 748 mmHg 94%

    25 January, Friday

    Time Temperature Precipitation Wind Pressure Humidity
    00:00 -21°C° 0 mm 1 mps 749 mmHg 94%
    01:00 -21°C° 0 mm 1 mps 749 mmHg 93%
    02:00 -21°C° 0 mm 1 mps 750 mmHg 93%
    03:00 -21°C° 0 mm 1 mps 750 mmHg 93%
    04:00 -21°C° 0 mm 1 mps 750 mmHg 93%
    05:00 -21°C° 0 mm 1 mps 750 mmHg 93%
    06:00 -21°C° 0 mm 1 mps 750 mmHg 94%
    07:00 -21°C° 0 mm 0 mps 750 mmHg 95%
    08:00 -21°C° 0 mm 0 mps 751 mmHg 95%
    09:00 -20°C° 0 mm 0 mps 751 mmHg 94%
    10:00 -18°C° 0 mm 0 mps 751 mmHg 93%
    11:00 -16°C° 0 mm 0 mps 752 mmHg 91%
    12:00 -16°C° 0 mm 0 mps 752 mmHg 92%
    13:00 -15°C° 0 mm 0 mps 751 mmHg 93%
    14:00 -15°C° 0 mm 0 mps 751 mmHg 93%
    15:00 -16°C° 0 mm 0 mps 751 mmHg 95%
    16:00 -18°C° 0 mm 0 mps 751 mmHg 96%
    17:00 -19°C° 0 mm 1 mps 751 mmHg 97%
    18:00 -19°C° 0 mm 1 mps 751 mmHg 97%
    19:00 -20°C° 0 mm 1 mps 752 mmHg 98%
    20:00 -20°C° 0 mm 1 mps 752 mmHg 98%
    21:00 -20°C° 0 mm 1 mps 751 mmHg 98%
    22:00 -20°C° 0 mm 1 mps 751 mmHg 97%
    23:00 -20°C° 0 mm 1 mps 751 mmHg 97%

    26 January, Saturday

    Time Temperature Precipitation Wind Pressure Humidity
    00:00 -20°C° 0 mm 1 mps 751 mmHg 97%
    01:00 -20°C° 0 mm 1 mps 751 mmHg 97%
    02:00 -20°C° 0 mm 1 mps 751 mmHg 96%
    03:00 -21°C° 0 mm 1 mps 751 mmHg 96%
    04:00 -21°C° 0 mm 1 mps 751 mmHg 96%
    05:00 -21°C° 0 mm 1 mps 750 mmHg 95%
    06:00 -21°C° 0 mm 1 mps 750 mmHg 95%
    07:00 -24°C° 0 mm 2 mps 750 mmHg 95%
    08:00 -24°C° 0 mm 2 mps 750 mmHg 95%
    09:00 -23°C° 0 mm 2 mps 750 mmHg 92%
    10:00 -21°C° 0 mm 2 mps 750 mmHg 90%
    11:00 -20°C° 0 mm 2 mps 750 mmHg 88%
    12:00 -19°C° 0 mm 2 mps 750 mmHg 88%
    13:00 -19°C° 0 mm 2 mps 750 mmHg 89%
    14:00 -18°C° 0 mm 2 mps 750 mmHg 89%
    15:00 -19°C° 0 mm 2 mps 749 mmHg 91%
    16:00 -20°C° 0 mm 2 mps 749 mmHg 92%
    17:00 -21°C° 0 mm 2 mps 749 mmHg 94%
    18:00 -21°C° 0 mm 2 mps 749 mmHg 94%
    19:00 -23°C° 0 mm 2 mps 749 mmHg 95%
    20:00 -24°C° 0 mm 2 mps 749 mmHg 96%
    21:00 -24°C° 0 mm 2 mps 749 mmHg 95%
    22:00 -25°C° 0 mm 2 mps 749 mmHg 94%
    23:00 -25°C° 0 mm 2 mps 749 mmHg 93%

    27 January, Sunday

    Time Temperature Precipitation Wind Pressure Humidity
    00:00 -25°C° 0 mm 2 mps 749 mmHg 92%
    01:00 -26°C° 0 mm 2 mps 749 mmHg 91%
    02:00 -26°C° 0 mm 2 mps 749 mmHg 90%
    03:00 -26°C° 0 mm 2 mps 749 mmHg 90%
    04:00 -27°C° 0 mm 2 mps 749 mmHg 90%
    05:00 -27°C° 0 mm 2 mps 748 mmHg 90%
    06:00 -27°C° 0 mm 2 mps 749 mmHg 90%
    07:00 -27°C° 0 mm 2 mps 749 mmHg 90%
    08:00 -27°C° 0 mm 2 mps 749 mmHg 90%
    09:00 -26°C° 0 mm 2 mps 749 mmHg 89%
    10:00 -25°C° 0 mm 3 mps 749 mmHg 88%
    11:00 -24°C° 0 mm 3 mps 750 mmHg 87%
    12:00 -23°C° 0 mm 3 mps 750 mmHg 87%
    13:00 -22°C° 0 mm 3 mps 749 mmHg 87%
    14:00 -22°C° 0 mm 3 mps 749 mmHg 87%
    15:00 -23°C° 0 mm 3 mps 749 mmHg 89%
    16:00 -23°C° 0 mm 2 mps 750 mmHg 90%
    17:00 -24°C° 0 mm 2 mps 750 mmHg 92%
    18:00 -25°C° 0 mm 2 mps 750 mmHg 92%
    19:00 -25°C° 0 mm 2 mps 750 mmHg 91%
    20:00 -26°C° 0 mm 2 mps 750 mmHg 91%
    21:00 -26°C° 0 mm 2 mps 750 mmHg 90%
    22:00 -26°C° 0 mm 2 mps 751 mmHg 90%
    23:00 -24°C° 0 mm 1 mps 751 mmHg 90%
    Show more